RH
77 78 78 79 79 79 80 80 80 79 79 82 84 86 88 88 83 36 22 18 20 83 75 21 25 22 16 16 16 45 60 27 18 13 14 14 15 15 17 20 23 25 30 29 27
77 78 78 77 76 77 78 80 79 79 80 81 84 85 87 88 34 14 17 53 76 76 14 14 17 16 14 14 17 69 68 28 24 15 13 13 14 16 18 20 22 28 26 27 26
77 78 78 76 75 75 76 78 79 80 81 82 82 83 86 73 20 9 67 75 78 57 7 8 10 11 13 13 16 45 65 28 22 16 12 12 13 13 19 22 22 31 32 30 28
78 78 78 76 74 74 75 77 78 80 81 81 81 82 83 36 15 9 65 74 78 19 10 9 10 12 14 15 12 36 24 22 15 11 13 12 12 14 17 18 18 25 30 31 30
76 79 81 80 77 78 78 80 82 80 80 80 81 82 46 18 14 10 71 61 23 16 11 11 11 12 13 13 11 11 22 17 9 10 11 12 14 13 14 15 17 23 28 31 30
76 79 81 82 82 80 81 82 82 81 79 80 81 83 37 14 6 7 11 18 9 13 10 9 10 9 10 12 10 8 8 9 8 8 9 14 14 13 13 14 18 23 27 28 28
80 81 81 81 81 80 82 82 82 80 79 81 84 59 19 11 7 10 7 6 8 9 9 7 7 8 8 9 8 7 9 9 8 8 10 11 16 16 14 14 20 22 26 27 27
82 82 82 82 82 81 82 81 82 78 78 85 80 43 19 5 6 7 5 7 7 6 7 6 6 6 7 7 7 8 8 11 9 9 10 11 23 14 14 15 19 23 24 26 26
82 82 83 83 82 82 82 80 78 76 78 76 63 39 18 16 10 6 5 6 6 5 6 6 6 6 6 8 9 9 11 11 12 9 11 12 32 22 15 15 19 22 23 24 27
83 83 83 83 82 82 82 79 63 72 66 41 32 30 19 11 8 6 5 5 5 6 7 8 7 7 6 8 13 11 10 10 13 11 11 14 34 26 18 15 17 20 22 24 24
83 83 84 83 82 81 63 28 21 32 35 24 18 13 7 9 6 7 6 6 7 7 9 9 9 10 8 8 9 8 10 11 11 14 12 20 46 51 33 18 15 18 20 21 23
83 83 84 84 82 76 54 18 10 9 11 7 8 11 12 7 10 8 6 10 9 10 9 8 10 7 6 7 8 9 10 11 10 16 16 14 28 33 22 19 16 16 19 20 21
82 83 84 84 77 52 14 9 9 7 10 8 6 5 8 10 9 8 7 9 9 9 9 8 6 5 5 6 9 9 10 12 12 12 12 13 16 15 17 18 17 16 16 17 20
82 83 84 86 43 21 15 10 6 6 13 9 6 5 4 5 7 5 5 9 7 9 8 8 5 5 5 6 8 11 8 9 10 14 20 15 20 23 18 21 18 17 16 16 18
82 84 84 84 44 29 13 9 7 8 20 6 5 4 4 5 5 5 4 7 11 7 7 9 6 5 5 5 6 9 8 9 9 12 18 23 23 21 20 23 20 17 16 15 16
84 84 84 39 29 26 16 10 9 15 21 8 7 7 6 5 5 6 5 6 8 9 6 7 5 4 4 4 4 6 8 8 8 10 21 20 24 24 22 26 19 16 15 17 15
85 85 77 44 29 14 14 13 14 17 9 9 8 8 8 7 6 8 8 8 9 15 13 8 7 5 4 5 4 5 8 14 16 16 17 14 23 24 18 17 16 19 21 16 16
85 81 56 32 23 22 20 17 24 13 12 6 6 7 10 8 8 6 10 9 8 9 10 12 12 6 5 6 6 5 6 13 25 19 15 12 16 19 17 15 17 21 21 13 16
84 34 27 16 15 18 22 24 18 15 10 8 7 8 9 8 8 9 10 10 8 8 14 12 12 6 5 4 4 6 8 6 10 11 14 12 12 10 14 14 17 16 12 12 16
56 44 32 18 12 21 27 33 18 11 9 8 11 9 10 8 9 8 10 9 8 6 7 10 13 7 6 5 4 5 5 8 9 21 24 14 17 16 20 26 19 14 13 10 12
53 34 18 13 16 26 36 26 20 15 14 14 14 12 9 9 8 9 8 7 7 6 6 7 11 10 8 9 8 6 6 7 7 10 16 19 16 12 17 19 17 15 13 11 9
38 38 14 16 26 24 26 22 28 19 16 15 13 11 11 9 10 9 9 7 6 6 8 7 9 14 9 7 6 6 7 7 12 21 13 15 14 8 12 13 14 13 12 10 11
47 33 18 15 28 23 21 16 14 15 17 16 16 13 10 9 14 10 10 6 6 6 9 9 11 16 14 8 7 8 7 6 6 7 20 17 15 10 14 14 14 13 12 14 16
54 39 22 17 18 21 24 34 29 18 19 14 22 18 15 13 10 13 11 8 6 6 41 15 9 16 13 15 10 12 8 7 6 10 11 13 15 13 15 17 16 15 13 13 19
50 44 31 38 28 27 37 53 43 41 25 24 28 29 30 36 15 11 9 9 8 18 12 10 21 14 11 9 9 9 9 8 10 11 12 10 14 14 13 16 16 16 16 16 20
86 52 47 45 37 31 31 31 32 29 37 42 32 35 41 46 44 51 37 20 13 10 10 12 22 18 14 9 9 11 8 7 8 8 8 8 10 9 11 12 15 17 14 17 18
52 72 93 69 42 32 25 25 48 36 43 38 40 57 55 49 47 40 31 24 20 17 17 18 16 26 23 13 12 14 12 10 8 7 8 11 12 11 12 13 15 25 18 17 16
Wind_Speed
21 21 21 22 22 22 22 21 21 21 21 20 19 19 19 18 21 8 14 12 17 18 7 10 16 19 21 16 21 10 2 14 10 14 16 10 12 12 18 14 16 10 17 24 20
22 22 22 22 22 22 22 22 22 22 21 20 20 19 19 18 13 21 24 15 15 15 11 17 17 19 16 18 4 10 7 7 18 4 12 11 13 15 12 14 8 24 23 23 21
23 23 23 23 24 24 23 22 22 23 23 22 20 19 18 17 14 11 10 10 12 15 15 18 19 17 19 17 12 14 8 17 31 15 14 11 17 12 19 13 13 26 24 22 19
23 23 24 24 25 25 24 23 23 23 22 22 20 18 18 7 9 8 11 11 12 14 16 20 20 20 19 18 20 13 17 24 16 10 10 13 18 12 13 15 19 22 23 21 20
23 23 24 25 26 26 25 24 23 23 23 21 19 16 11 10 23 10 12 13 11 12 18 20 21 20 20 18 20 17 27 23 7 11 9 9 15 17 8 20 19 23 24 22 20
22 22 23 25 25 26 26 25 25 24 23 20 17 10 8 18 16 10 17 14 13 15 18 20 20 18 21 20 21 18 11 13 4 9 7 15 16 14 15 17 21 22 23 21 21
23 23 24 25 25 27 27 28 27 26 22 18 12 9 13 25 17 22 17 16 15 17 18 20 21 19 19 20 20 21 18 7 9 10 10 11 17 13 19 15 20 20 21 21 20
24 25 27 28 27 27 27 28 28 26 20 14 6 10 12 15 19 24 13 15 17 15 17 16 18 20 22 17 22 22 18 13 19 15 11 14 8 14 21 17 19 20 20 20 20
24 25 27 29 30 31 31 33 29 22 13 4 9 11 14 7 20 20 20 18 18 17 15 14 18 19 19 20 18 22 17 19 9 13 16 16 9 10 15 16 19 18 19 19 18
22 24 26 28 30 31 34 35 14 4 8 10 13 10 19 17 15 17 18 18 17 17 17 18 15 17 18 18 17 20 21 18 16 17 18 15 14 12 22 19 19 19 19 18 19
22 24 27 29 30 30 21 10 6 8 11 14 11 13 17 18 16 12 17 22 20 18 19 21 16 21 25 25 23 24 19 24 12 8 17 19 19 22 26 23 19 20 18 20 20
22 23 27 31 34 33 14 9 8 9 16 21 29 26 29 14 12 13 15 17 21 20 21 20 24 25 23 25 26 27 27 24 15 25 25 17 28 30 29 20 19 20 19 19 19
23 23 25 31 36 17 13 18 9 14 11 19 31 29 32 26 21 18 21 19 19 23 23 24 23 24 25 25 27 28 27 22 16 20 22 18 19 21 22 20 19 19 21 20 19
23 23 22 27 17 16 10 9 12 12 9 13 17 24 28 29 32 26 21 20 21 24 23 24 25 26 26 29 28 27 26 26 21 17 12 16 12 13 17 22 20 20 19 23 22
25 24 23 16 17 9 15 14 13 10 10 1 16 7 16 29 6 31 28 25 26 25 18 23 24 27 28 30 29 25 25 26 24 21 16 23 8 15 20 18 25 22 21 20 24
24 25 23 15 7 17 18 17 9 8 14 8 12 12 18 26 29 14 31 27 23 25 25 24 22 27 24 25 27 25 24 25 23 19 16 20 14 22 20 25 22 22 22 22 21
25 24 21 14 9 15 16 8 8 14 9 14 17 16 21 21 27 17 26 30 26 25 24 25 27 25 25 24 26 28 25 15 18 17 16 22 24 15 18 23 20 10 18 22 20
27 31 16 14 14 16 10 8 18 12 29 12 12 20 22 22 25 28 23 25 31 28 19 21 23 28 20 28 24 25 25 16 21 17 19 23 21 15 24 19 15 21 36 25 23
31 13 14 13 18 11 10 18 13 19 18 20 24 21 23 25 24 27 28 25 29 31 25 22 24 20 31 22 26 26 26 25 26 23 19 17 23 23 19 18 24 26 9 13 25
13 16 16 19 8 7 13 28 19 25 28 26 26 22 27 25 28 28 28 27 27 32 30 25 19 24 24 26 28 30 18 25 20 26 25 21 21 11 20 21 23 18 22 15 19
10 9 17 5 5 10 17 23 26 30 31 31 30 30 31 27 27 29 28 27 30 27 29 28 23 19 25 29 26 20 23 24 21 20 17 18 16 15 16 24 22 20 20 21 15
9 11 6 7 11 10 17 27 26 30 32 32 30 31 32 31 29 29 32 27 22 26 30 27 19 21 25 26 29 28 28 28 17 22 18 19 15 13 13 14 20 15 15 15 13
10 14 16 16 17 14 22 29 29 28 27 30 32 32 31 30 29 30 31 27 24 26 26 22 23 17 23 24 25 31 28 25 26 22 19 19 16 19 7 12 18 14 16 17 16
6 8 11 12 17 19 19 19 26 25 27 28 21 22 30 31 28 29 30 29 26 30 5 25 23 26 19 20 17 25 29 28 26 19 19 19 19 25 12 20 16 12 14 7 5
6 8 18 13 16 16 15 15 21 25 23 23 18 22 15 13 26 28 29 30 31 19 12 16 17 22 28 30 26 26 29 28 27 25 23 21 21 22 23 12 16 8 5 6 6
5 9 9 15 22 22 19 17 25 21 18 26 19 20 20 19 14 23 28 26 24 21 21 19 16 18 25 28 29 27 27 28 30 29 28 24 24 18 16 17 13 19 19 12 11
6 7 4 9 17 16 16 21 15 14 13 20 13 10 20 18 22 27 28 31 29 22 16 20 16 16 19 24 24 27 27 24 23 25 22 21 22 15 15 15 12 7 8 13 16
Wind_Direction
355 353 351 347 344 342 339 337 334 332 330 327 326 323 321 322 306 237 251 259 211 171 199 198 224 237 250 260 260 178 287 288 323 109 118 165 112 93 99 121 144 106 148 144 151
353 351 348 345 341 339 336 333 331 328 325 323 321 320 318 326 295 277 255 223 148 164 209 222 219 231 249 247 274 80 329 308 256 66 128 161 142 112 125 137 145 138 136 137 161
349 347 345 341 338 335 332 329 326 324 321 319 317 316 315 316 284 282 91 132 160 180 233 239 241 235 246 253 207 154 202 287 286 151 160 160 127 140 137 166 142 130 138 151 161
347 343 339 337 333 330 327 324 321 318 316 313 312 313 312 275 286 128 156 159 174 214 233 240 236 241 240 246 252 138 188 234 251 149 165 170 133 143 154 158 148 138 148 160 164
345 339 334 330 329 326 322 319 315 313 311 307 306 312 301 243 249 188 170 163 180 210 214 225 229 232 239 245 250 206 189 237 173 147 170 206 145 129 137 133 143 141 154 166 171
342 336 331 328 327 323 319 316 312 309 306 302 298 299 244 260 256 183 185 174 214 206 220 227 234 231 246 239 254 250 246 254 185 218 195 189 140 136 134 139 143 149 164 174 177
339 335 330 326 325 322 317 312 309 306 302 297 282 232 257 245 278 157 195 219 212 198 222 221 239 247 245 259 258 269 268 232 247 249 175 239 144 165 140 153 149 161 171 176 183
336 334 331 327 324 319 313 309 304 300 295 281 246 213 258 261 239 257 235 215 221 217 223 232 228 244 254 248 258 261 251 245 228 200 165 206 151 162 148 167 163 167 175 177 186
332 332 328 326 324 321 317 309 298 286 267 240 202 227 260 233 230 219 218 214 222 228 230 238 235 229 237 250 248 245 241 235 191 201 158 201 121 307 165 178 169 174 178 180 183
329 328 326 323 321 320 319 302 284 245 219 203 262 246 232 247 204 219 221 212 221 217 216 216 225 227 222 227 231 235 232 235 206 195 190 170 135 224 257 179 182 179 179 185 185
329 327 325 321 318 317 329 320 224 193 222 242 199 231 280 212 218 200 192 199 216 210 213 204 213 218 217 222 234 246 238 230 200 55 208 156 156 173 239 221 191 179 186 185 191
329 328 324 319 317 315 294 276 5 319 293 258 251 252 256 237 186 209 206 204 214 208 209 212 219 221 220 218 230 244 255 244 187 172 226 194 176 175 203 188 189 185 184 192 189
327 328 327 320 314 295 301 290 343 309 281 281 236 231 222 237 243 219 199 206 212 213 209 223 213 222 218 219 219 234 245 250 250 194 194 207 207 201 176 183 192 197 185 191 194
324 323 326 330 294 335 285 20 324 324 275 261 217 226 218 219 234 233 222 206 226 221 221 222 234 206 222 217 220 228 232 251 256 243 182 252 226 199 214 185 191 189 204 189 191
322 320 321 315 299 282 328 338 313 276 282 115 177 175 188 201 170 205 217 208 219 222 221 224 217 228 210 223 219 228 230 238 254 249 174 194 252 263 209 187 186 192 198 207 189
318 313 320 302 225 259 285 289 286 233 243 255 141 189 192 199 215 240 196 225 217 228 233 237 224 227 226 214 231 228 238 245 245 253 218 222 207 255 185 179 251 188 199 198 203
311 307 300 279 257 339 330 282 225 231 221 233 185 194 213 197 204 181 189 203 215 218 225 221 237 227 225 224 212 231 225 230 234 233 242 212 196 210 190 200 213 227 279 196 197
312 307 272 254 240 250 252 240 235 238 222 269 262 194 210 212 207 218 191 204 212 218 222 223 219 228 198 223 221 217 228 228 229 229 234 237 247 200 200 195 169 180 222 190 186
312 309 287 258 215 222 240 225 229 229 281 232 257 256 214 215 224 207 212 209 210 211 222 222 229 215 227 210 228 213 224 230 240 240 247 238 221 233 181 217 191 205 243 226 176
312 298 265 236 213 201 232 239 247 261 290 294 281 271 248 225 216 228 209 210 216 211 222 237 251 217 207 225 215 228 218 220 232 238 242 239 251 224 190 140 228 188 200 231 186
286 284 283 150 186 222 240 251 253 265 272 277 283 285 277 260 245 223 230 211 209 216 211 226 244 247 206 201 218 209 228 236 230 240 246 245 243 235 193 181 190 198 199 225 223
303 271 267 196 236 238 249 256 258 266 278 282 280 265 267 277 279 254 228 232 220 206 219 213 227 241 243 214 207 222 212 231 237 223 237 258 245 234 236 224 187 201 213 216 224
293 288 276 281 263 256 266 266 262 269 265 264 268 271 275 261 267 272 276 245 213 230 212 204 217 231 239 244 213 210 222 222 235 247 244 238 244 260 155 196 275 204 207 210 221
287 295 295 240 242 256 278 308 304 306 299 257 304 296 273 266 259 265 268 275 258 224 102 207 219 220 235 235 228 218 215 221 230 230 238 245 229 256 201 182 221 183 240 210 170
267 284 316 307 300 308 313 297 293 295 311 306 298 298 316 303 273 253 259 270 274 230 188 212 234 227 220 248 228 237 215 216 224 242 241 236 240 223 253 227 193 227 204 233 232
277 310 327 306 305 301 296 269 267 274 306 305 284 278 307 298 333 310 319 287 259 251 202 216 233 247 232 222 241 241 227 220 220 226 246 253 252 249 243 252 245 179 229 207 210
262 297 320 297 289 293 293 292 324 316 277 302 3 308 293 309 319 306 294 284 281 276 226 205 219 228 238 232 236 238 239 237 218 220 231 241 251 265 258 262 278 244 234 220 203